Change the Weather History Date:

Saturday, April 12, 2014

  Actual Average Record
Temperature  
Mean Temperature 56 °F -  
Max Temperature 66 °F - - ()
Min Temperature 45 °F - - ()
Degree Days  
Heating Degree Days 10    
Growing Degree Days 6 (Base 50)    
Moisture  
Dew Point 37 °F    
Average Humidity 56    
Maximum Humidity 95    
Minimum Humidity 16    
Precipitation  
Precipitation 0.04 in - - ()
Sea Level Pressure  
Sea Level Pressure 30.12 in    
Wind  
Wind Speed 4 mph ()    
Max Wind Speed 16 mph    
Max Gust Speed 21 mph    
T = Trace of Precipitation, MM = Missing Value Source: Averaged Metar Reports

Daily Weather History Graph

Daily Weather History Graph

Search for Another Location

Airport or City:

Trip Planner

Search our weather history database for the weather conditions in past years. The results will help you decide how hot, cold, wet, or windy it might be!

Date:

Astronomy

Apr. 12, 2014 Rise Set
Actual Time 6:21 AM PDT 7:55 PM PDT
Civil Twilight 5:48 AM PDT 8:28 PM PDT
Nautical Twilight 5:07 AM PDT 9:09 PM PDT
Astronomical Twilight 4:23 AM PDT 9:53 PM PDT
Moon 5:27 PM PDT (4/12) 5:04 AM PDT (4/12)
Length of Visible Light 14h 40m
Length of Day
13h 33m
Waxing Gibbous, 93% of the Moon is Illuminated
Apr 12
Waxing Gibbous
Apr 15
Full
Apr 22
Last Quarter
Apr 28
New
May 6
First Quarter

Hourly Weather History & Observations

Time (PDT) Temp. Windchill Dew Point Humidity Pressure Visibility Wind Dir Wind Speed Gust Speed Precip Events Conditions
12:00 AM 47.8 °F - 46.6 °F 95% 30.06 in - Calm Calm - N/A   Unknown
1:00 AM 48.4 °F - 47.1 °F 95% 30.06 in - North 1.2 mph - N/A   Unknown
2:00 AM 48.2 °F - 46.6 °F 94% 30.07 in - Calm Calm - N/A   Unknown
3:00 AM 48.6 °F - 45.0 °F 87% 30.07 in - NNE 4.6 mph - N/A   Unknown
4:00 AM 48.9 °F - 44.1 °F 83% 30.08 in - NE 6.9 mph - N/A   Unknown
5:00 AM 47 °F - 44 °F 86% 30.10 in - NE 11.5 mph - -  
5:00 AM 47.3 °F - 44.1 °F 88% 30.10 in - NE 11.5 mph - N/A   Unknown
7:00 AM 43.7 °F 42.1 °F 41.9 °F 93% 30.12 in - South 3.5 mph - 0.03 in   Unknown
8:00 AM 46.0 °F 41.4 °F 43.0 °F 89% 30.12 in - NE 9.2 mph - N/A   Unknown
9:00 AM 49.5 °F - 44.6 °F 83% 30.13 in - NE 9.2 mph - N/A   Unknown
10:00 AM 52.3 °F - 44.2 °F 74% 30.13 in - East 5.8 mph - N/A   Unknown
11:00 AM 57 °F - 45 °F 55% 30.12 in - NNE 2.3 mph - -  
11:00 AM 57.2 °F - 45.3 °F 65% 30.12 in - NNE 2.3 mph - N/A   Unknown
12:00 PM 60.3 °F - 40.8 °F 49% 30.12 in - ENE 4.6 mph - N/A   Unknown
1:00 PM 61.9 °F - 31.5 °F 32% 30.11 in - WSW 3.5 mph - N/A   Unknown
2:00 PM 61.7 °F - 31.8 °F 33% 30.10 in - WNW 6.9 mph - N/A   Unknown
3:00 PM 64.0 °F - 29.8 °F 28% 30.11 in - NNW 5.8 mph - N/A   Unknown
4:00 PM 65.1 °F - 31.8 °F 29% 30.10 in - WNW 4.6 mph - N/A   Unknown
5:00 PM 66 °F - 31 °F 16% 30.10 in - WNW 1.2 mph - -  
5:00 PM 65.7 °F - 30.9 °F 27% 30.10 in - WNW 1.2 mph - N/A   Unknown
6:00 PM 65.5 °F - 27.7 °F 24% 30.10 in - West 2.3 mph - N/A   Unknown
7:00 PM 63.1 °F - 24.3 °F 23% 30.11 in - North 4.6 mph - N/A   Unknown
8:00 PM 57.2 °F - 22.1 °F 26% 30.12 in - WNW 3.5 mph - N/A   Unknown
9:00 PM 58.6 °F - 25.0 °F 28% 30.16 in - NNE 6.9 mph - N/A   Unknown
10:00 PM 55.0 °F - 27.7 °F 35% 30.18 in - NNE 16.1 mph - N/A   Unknown
11:00 PM 52 °F - 29 °F 29% 30.21 in - NNE 15.0 mph - -  
11:00 PM 52.3 °F - 29.1 °F 41% 30.21 in - NNE 15.0 mph 20.7 mph N/A   Unknown